Terug naar catalogus

COSMOS 1913

ActiefMilitairPO
NORAD 18792·PAYLOAD·🇷🇺 Russia

Gelanceerd Jan 15, 1988 vanaf Plesetsk Cosmodrome

Loading…

Volgende Passages (komende 24 uur)

TLE

VersSource: Space-Track

Epoch: Sep 14, 2026, 04:31 UTC

1 18792U 88002E   26257.18829707  .00000038  00000-0  14381-3 0  9990
2 18792  82.6032 159.6734 0012535 222.6556 303.9086 12.65751939786018

Volg COSMOS 1913 in realtime met AllMySat

Download on the App Store